[Iaude] MPEC N45: 2020 WG [a=2.51,e=0.60,i=7.6,H=21.74]
    mpec at cfa.harvard.edu 
    mpec at cfa.harvard.edu
       
    Fri Jul  5 10:17:34 EDT 2024
    
    
  
M.P.E.C. 2024-N45                                  Issued 2024 July 5, 14:16 UT
     The Minor Planet Electronic Circulars contain information on unusual
         minor planets, routine data on comets and natural satellites,
         and occasional editorial announcements.  They are published
    on behalf of Division F of the International Astronomical Union by the
          Minor Planet Center, Smithsonian Astrophysical Observatory,
                          Cambridge, MA 02138, U.S.A.
			  
             Prepared using the Tamkin Foundation Computer Network
                              MPC at CFA.HARVARD.EDU
            URL https://www.minorplanetcenter.net/    ISSN 1523-6714
                                    2020 WG                                     
                           Revision to MPEC 2020-W41                            
Additional Observations:
     K20W00G 0C2024 07 03.55799920 43 18.373-37 25 25.63         22.77GVEN045T14
     K20W00G 0C2024 07 03.55943720 43 18.360-37 25 26.96         22.63GVEN045T14
     K20W00G 0C2024 07 03.56087820 43 18.348-37 25 28.30         22.97GVEN045T14
     K20W00G 0C2024 07 04.52234820 43 15.912-37 40 41.35         22.61GVEN045T14
     K20W00G 0C2024 07 04.52378920 43 15.898-37 40 42.72         22.54GVEN045T14
     K20W00G 0C2024 07 04.52522920 43 15.882-37 40 44.05         22.87GVEN045T14
Observer details:
T14 Canada-France-Hawaii Telescope, Maunakea.  Observer H. Januszewski.
    Measurer D. J. Tholen.  3.6-m f/4.1 reflector + 1024 x 2306 pixels
    Megacam.
First and last observations above in comparison with prediction:
Residuals in seconds of arc (or two decimals in degrees), reference and Delta-T
240703 T14 0.13- 0.03-    240704 T14 0.13- 0.03-    MPO740956   +0.06 days
Orbital elements:
2020 WG                                             PHA, Earth MOID = 0.0138 AU
Epoch 2024 Mar. 31.0 TT = JDT 2460400.5                 Veres                   
M 310.12935              (2000.0)            P               Q                  
n   0.24807443     Peri.  348.83635     +0.92870579     -0.36380200             
a   2.5085035      Node    32.78625     +0.34961231     +0.79450396             
e   0.6004243      Incl.    7.61828     +0.12359928     +0.48622173             
P   3.97           H   21.74          G   0.15           U   0                  
Residuals in seconds of arc
201116 G96  0.0   0.1+    201120 691  0.1+  0.1+    201206 I52  0.0   0.3-
201116 G96  0.0   0.1+    201120 C51  0.0   1.8-    201206 I52  0.1-  0.1-
201116 G96  0.1+  0.0     201120 C51  0.3-  0.4-    201206 I52  0.2-  0.3-
201116 G96  0.1+  0.0     201120 C51  0.1+  0.7-    201206 I52  0.0   0.2-
201116 I52  0.5-  0.2-    201120 C51  0.4+  0.4-    201206 F51  0.2-  0.0
201116 I52  0.1-  0.0     201120 C51  0.1-  1.1+    201206 F51  0.1-  0.1+
201116 I52  0.3-  0.2+    201120 033  0.2-  0.1-    201206 F51  0.0   0.0
201116 I52  0.0   0.1+    201120 033  0.2-  0.2-    201206 F51  0.1-  0.1-
201116 033  0.6-  0.7-    201120 033  0.1-  0.2-    201206 F51  0.0   0.2+
201116 033  0.8-  0.5-    201121 807  0.2-  0.3-    201206 F51  0.0   0.1+
201116 033 (1.4-  0.8-)   201121 807  0.2-  0.2-    201206 F51  0.2+  0.3+
201116 204  0.2-  0.1-    201121 807  0.1-  0.0     201207 I52  0.4-  0.4-
201116 204  0.3+  0.2+    201121 I52  0.5-  0.3+    201207 I52  0.5-  0.5-
201116 204  0.3+  0.3-    201121 I52  0.1-  0.1-    201207 I52  0.3-  0.0
201116 J04  0.3+  0.1+    201121 I52  0.1+  0.3-    201207 I52  0.4-  0.4+
201116 J04  0.1-  0.1-    201122 I52  0.1+  0.2-    201207 F52  0.1+  0.1+
201116 J04  0.1-  0.0     201122 I52  0.0   0.2+    201207 F52 (0.1-  0.6-)
201117 H21  0.0   0.2+    201122 I52  0.2-  0.2+    201207 F52 (0.1-  0.5+)
201117 H21  0.1-  0.3+    201122 I52  0.1-  0.2+    201207 F51 (0.3+  0.1+)
201117 H21  0.2-  0.1-    201122 691  0.2+  0.0     201207 F51 (0.4+  0.2+)
201117 734  0.6+  0.1+    201122 691 (0.4+  0.7+)   201207 F51  0.1-  0.1-
201117 734  0.1+  0.3+    201122 691  0.0   0.3-    201207 F51  0.0   0.2+
201117 734  0.7+  0.6+    201122 703  0.3+  0.0     201209 F52  0.2+  0.2+
201117 711  0.4+  0.3+    201122 703  0.8+  0.5+    201209 F52  0.4+  0.0
201117 I52  0.0   0.3-    201122 703  0.8+  0.7+    201209 F52  0.1+  0.0
201117 I52  0.2-  0.4-    201123 I52  0.2+  0.0     201209 F52  0.2-  0.1-
201117 I52  0.0   0.1-    201123 I52  0.1+  0.1+    201214 I52  0.5-  0.0
201117 711  0.7+  0.0     201123 I52  0.5+  0.1+    201214 I52  0.2-  0.3-
201117 734  0.4+  0.1-    201124 I52  0.1+  0.1+    201214 I52  0.0   0.1-
201117 I52  0.1-  0.0     201124 I52  0.4+  0.1+    201214 I52  0.1-  0.1+
201117 711  0.9+  0.1-    201124 I52  0.7-  0.7-    201217 I52  0.4+  0.2-
201117 H36  0.1+  0.1-    201125 I52  0.0   0.2-    201217 I52  0.1-  0.1-
201117 H36  0.2+  0.6+    201125 I52  0.2-  0.2+    201217 I52  0.1-  0.2-
201117 H36  1.2-  0.1-    201125 I52  0.6-  0.3-    201217 I52  0.2+  0.2+
201117 L01  0.0   0.1+    201125 I52  0.2+  0.1+    201218 G96  0.3-  0.2+
201117 L01  0.2+  0.3+    201126 I52  0.0   0.1-    201218 G96  0.2-  0.2+
201117 L01  0.1+  0.2-    201126 I52  0.1-  0.1-    201218 G96  0.4+  0.0
201117 L01  0.2-  0.1-    201126 I52  0.4+  0.2+    201219 I52  0.3-  0.3+
201117 I93  0.4-  0.1+    201126 I52  0.4+  0.3-    201219 I52  0.2-  0.1+
201117 I93  0.3-  0.4+    201127 I52  0.0   0.1+    201219 I52  0.1+  0.1+
201117 I93  0.0   0.3+    201127 I52  0.1+  0.4+    201219 I52  0.2+  0.4+
201118 291  0.0   0.0     201127 I52  0.1+  0.1+    201222 I52 (0.8-  1.2-)
201118 291  0.0   0.1+    201128 I52  0.0   0.2+    201222 I52  0.2+  0.5+
201118 291  0.0   0.2-    201128 I52  0.2+  0.4-    201222 I52 (0.8-  0.7+)
201119 807  0.1-  0.2+    201128 I52  0.2+  0.3-    201223 F51  0.1+  0.0
201119 807  0.2-  0.3+    201129 I52  0.2-  0.3-    201223 F51 (0.5-  0.1-)
201119 807  0.2-  0.0     201129 I52  0.1+  0.0     201223 F51 (1.0-  0.6+)
201119 I52  0.0   0.1-    201129 I52  0.1+  0.5+    210102 V06  0.2+  0.0
201119 I52  0.0   0.1+    201129 I52  0.6+  0.3+    210102 V06  0.2-  0.2+
201119 I52  0.0   0.2-    201202 I52  0.2-  0.1+    210102 V06  0.1+  0.1-
201119 I52  0.1-  0.1-    201202 I52  0.1-  0.2+    210103 V06  0.5-  0.0
201119 Z99  0.7-  0.0     201202 I52  0.0   0.1-    210103 V06 (0.6+  0.1+)
201119 Z99  0.8-  0.5-    201202 I52  0.2+  0.1+    210103 V06  0.0   0.2-
201119 Z99  0.6-  0.5-    201203 I52  0.2+  0.5+    210104 291  0.2+  0.2+
201120 C51  0.5+  0.9-    201203 I52  0.0   0.3-    210104 291  0.1+  0.1-
201120 807  0.2+  0.0     201203 I52  0.1-  0.0     210104 291  0.2-  0.2+
201120 807  0.4+  0.2+    201203 I52  0.1-  0.1-    240703 T14  0.0   0.1-
201120 807  0.1+  0.1-    201204 I52  0.2+  0.0     240703 T14  0.0   0.1-
201120 I52  0.0   0.1+    201204 I52  0.1+  0.1-    240703 T14  0.0   0.1-
201120 I52  0.1-  0.2-    201204 I52  0.5-  0.1-    240704 T14  0.0   0.1-
201120 I52  0.1-  0.2+    201204 I52  0.1-  0.1-    240704 T14  0.0   0.1-
201120 I52  0.0   0.4+    201205 F51 (0.2-  0.1-)   240704 T14  0.0   0.0
201120 691  0.6+  0.1+    201205 F51  0.1+  0.0
201120 691  0.1+  0.3+    201205 F51  0.1-  0.1-
Ephemeris:
2020 WG                  a,e,i = 2.51, 0.60, 8                   q = 1.0023
Date    TT    R. A. (2000) Decl.     Delta      r    Elong.  Phase     V
2024 06 05    20 30 09.6 -31 58 33   1.0291  1.8617   131.3    24.2    24.3
...
2024 06 20    20 40 08.0 -34 20 52   0.8217  1.7414   142.5    20.8    23.5
...
2024 06 28    20 42 49.3 -36 02 49   0.7243  1.6766   148.3    18.6    23.1
...
2024 07 04    20 43 17.7 -37 32 11   0.6578  1.6277   152.2    16.9    22.8
2024 07 05    20 43 13.8 -37 48 09   0.6472  1.6195   152.8    16.7    22.7
2024 07 06    20 43 07.2 -38 04 23   0.6369  1.6114   153.3    16.5    22.7
...
2024 07 12    20 41 30.3 -39 47 34   0.5781  1.5625   156.0    15.4    22.4
...
2024 07 20    20 36 37.4 -42 17 27   0.5087  1.4974   156.9    15.4    22.0
...
2024 08 04    20 18 29.7 -47 08 11   0.4047  1.3776   149.1    22.2    21.5
A. U. Tomatic                (C) Copyright 2024 MPC           M.P.E.C. 2024-N45
    
    
More information about the Iaude
mailing list